This is the latest recevied weather packets stored in our database for station/object KG7BDA. If no packets are shown the sender has not sent any weather packets the latest 10 day(s).
| Time | Temp. | Humidity | Pressure | Rain* | Wind** | Luminosity | Snow |
|---|---|---|---|---|---|---|---|
| 1778045600 | 15.56° C | 39% | 1011.8 hPa | 0 mm | - | - | - |
| 1778045241 | 16.11° C | 38% | 1011.7 hPa | 0 mm | - | - | - |
| 1778044882 | 16.67° C | 37% | 1011.5 hPa | 0 mm | - | - | - |
| 1778044521 | 16.67° C | 37% | 1011.2 hPa | 0 mm | - | - | - |
| 1778044161 | 16.11° C | 38% | 1011.2 hPa | 0 mm | - | - | - |
| 1778043801 | 16.67° C | 37% | 1011 hPa | 0 mm | - | - | - |
| 1778043440 | 17.78° C | 35% | 1011.8 hPa | 0 mm | - | - | - |
| 1778043081 | 18.33° C | 33% | 1011.7 hPa | 0 mm | - | - | - |
| 1778042722 | 18.89° C | 32% | 1011.7 hPa | 0 mm | - | - | - |
| 1778042361 | 17.78° C | 34% | 1011.6 hPa | 0 mm | - | - | - |
| 1778042001 | 17.78° C | 35% | 1011.5 hPa | 0 mm | - | - | - |
| 1778041640 | 17.78° C | 36% | 1011.3 hPa | 0 mm | - | - | - |
| 1778041282 | 17.78° C | 36% | 1011.3 hPa | 0 mm | - | - | - |
| 1778040921 | 17.78° C | 36% | 1011.2 hPa | 0 mm | - | - | - |
| 1778040595 | 17.78° C | 35% | 1011.1 hPa | 0 mm | - | - | - |
| 1778040561 | 17.78° C | 35% | 1011.1 hPa | 0 mm | - | - | - |
| 1778040200 | 18.33° C | 35% | 1011.1 hPa | 0 mm | - | - | - |
| 1778039841 | 18.89° C | 34% | 1010.9 hPa | 0 mm | - | - | - |
| 1778039481 | 18.89° C | 33% | 1010.8 hPa | 0 mm | - | - | - |
| 1778039120 | 18.89° C | 33% | 1010.7 hPa | 0 mm | - | - | - |
| 1778038761 | 18.89° C | 34% | 1010.7 hPa | 0 mm | - | - | - |
| 1778038402 | 18.89° C | 34% | 1010.6 hPa | 0 mm | - | - | - |
| 1778038041 | 18.89° C | 34% | 1010.4 hPa | 0 mm | - | - | - |
| 1778037681 | 18.89° C | 34% | 1010.4 hPa | 0 mm | - | - | - |
| 1778037321 | 18.89° C | 34% | 1010.3 hPa | 0 mm | - | - | - |
* Rain latest hour (hover to see other rain measurements)
** Current wind speed in m/s (hover to see current wind gust speed)